User: anonymous
Location: St. Malo Provincial Park
(49.3214°N, 96.9305°W)
Time: 10:10:33
(UTC-05:00)
Language:

Iridium 6 - Orbit

View from above orbital plane
View from above orbital plane
View from above satellite
View from above satellite

Ground track
Ground track

The orbit data is extracted from the following two-line orbital elements,

1 24794U 97020C   14293.25546034  .00000439  00000-0  14973-3 0  8309
2 24794 086.3998 004.7259 0002108 110.5651 249.5771 14.34217134914030
Epoch (UTC): 20 October 2014 06:07:51
Eccentricity: 0.0002108
inclination: 86.3998°
perigee height: 776 km
apogee height: 779 km
right ascension of ascending node: 4.7259°
argument of perigee: 110.5651°
revolutions per day: 14.34217134
mean anomaly at epoch: 249.5771°
orbit number at epoch: 91403

The dashed part of the orbit path shows where the satellite is in the earth's shadow,  

DLR